TimeEDT,TemperatureF,Dew PointF,Humidity,Sea Level PressureIn,VisibilityMPH,Wind Direction,Wind SpeedMPH,Gust SpeedMPH,PrecipitationIn,Events,Conditions,WindDirDegrees,DateUTC
12:20 AM,51.8,51.8,100,29.83,5.0,Calm,Calm,-,0.10,Rain,Rain,0,2013-03-12 04:20:00
12:44 AM,51.8,51.8,100,29.83,7.0,South,3.5,-,0.15,Rain,Light Rain,180,2013-03-12 04:44:00
12:51 AM,51.8,51.8,100,29.82,6.0,Calm,Calm,-,0.15,Rain,Light Rain,0,2013-03-12 04:51:00
12:54 AM,52.0,51.1,97,29.79,6.0,Calm,Calm,-,0.15,Rain,Light Rain,0,2013-03-12 04:54:00
1:14 AM,51.8,51.8,100,29.81,7.0,Calm,Calm,-,N/A,Rain,Light Rain,0,2013-03-12 05:14:00
1:33 AM,51.8,51.8,100,29.80,6.0,Calm,Calm,-,0.02,Rain,Light Rain,0,2013-03-12 05:33:00
1:54 AM,52.0,51.1,97,29.77,8.0,Calm,Calm,-,0.02,Rain,Light Rain,0,2013-03-12 05:54:00
2:10 AM,53.6,51.8,94,29.79,8.0,Calm,Calm,-,0.02,Rain,Light Rain,0,2013-03-12 06:10:00
2:23 AM,51.8,51.8,100,29.78,5.0,Calm,Calm,-,0.03,Rain,Light Rain,0,2013-03-12 06:23:00
2:54 AM,52.0,51.1,97,29.76,5.0,South,3.5,-,0.06,Rain,Light Rain,180,2013-03-12 06:54:00
3:28 AM,51.8,51.8,100,29.78,5.0,WNW,4.6,-,0.03,Rain,Light Rain,290,2013-03-12 07:28:00
3:54 AM,48.0,46.0,93,29.76,4.0,NNW,17.3,-,0.05,Rain,Light Rain,340,2013-03-12 07:54:00
4:11 AM,46.4,44.6,93,29.79,5.0,NNW,17.3,-,0.02,Rain,Rain,340,2013-03-12 08:11:00
4:21 AM,46.4,44.6,93,29.79,6.0,NNW,15.0,-,0.04,Rain,Rain,340,2013-03-12 08:21:00
4:54 AM,44.1,42.1,93,29.78,10.0,NNW,23.0,28.8,0.04,,Overcast,330,2013-03-12 08:54:00
5:22 AM,42.8,41.0,93,29.80,7.0,NNW,20.7,26.5,N/A,,Overcast,340,2013-03-12 09:22:00
5:54 AM,42.1,39.9,92,29.79,7.0,NNW,21.9,28.8,N/A,,Overcast,340,2013-03-12 09:54:00
6:02 AM,42.8,39.2,87,29.81,6.0,NNW,19.6,29.9,N/A,,Overcast,340,2013-03-12 10:02:00
6:54 AM,41.0,39.0,93,29.81,10.0,North,18.4,31.1,N/A,,Overcast,350,2013-03-12 10:54:00
7:54 AM,39.0,37.0,93,29.84,10.0,NNW,19.6,29.9,N/A,,Overcast,340,2013-03-12 11:54:00
8:05 AM,39.2,37.4,93,29.86,2.0,North,17.3,27.6,N/A,,Overcast,350,2013-03-12 12:05:00
8:54 AM,37.9,36.0,93,29.89,2.0,NNW,18.4,27.6,N/A,,Overcast,340,2013-03-12 12:54:00
9:01 AM,39.2,35.6,87,29.90,10.0,North,16.1,25.3,N/A,,Overcast,350,2013-03-12 13:01:00
9:36 AM,39.2,35.6,87,29.91,10.0,North,20.7,29.9,N/A,,Overcast,350,2013-03-12 13:36:00
9:54 AM,39.0,35.1,86,29.90,10.0,NNW,12.7,-,N/A,,Overcast,340,2013-03-12 13:54:00
10:40 AM,41.0,35.6,81,29.92,10.0,North,19.6,28.8,N/A,,Overcast,350,2013-03-12 14:40:00
10:54 AM,41.0,34.0,76,29.91,10.0,North,13.8,26.5,N/A,,Overcast,350,2013-03-12 14:54:00
11:54 AM,43.0,35.1,74,29.91,10.0,NNW,12.7,19.6,N/A,,Overcast,340,2013-03-12 15:54:00
12:54 PM,45.0,36.0,71,29.92,10.0,NNW,18.4,29.9,N/A,,Mostly Cloudy,340,2013-03-12 16:54:00
1:07 PM,44.6,33.8,66,29.94,10.0,North,15.0,26.5,N/A,,Scattered Clouds,360,2013-03-12 17:07:00
1:54 PM,46.9,35.1,63,29.91,10.0,NNW,20.7,27.6,N/A,,Clear,330,2013-03-12 17:54:00
2:54 PM,48.0,35.1,61,29.92,10.0,North,16.1,26.5,N/A,,Clear,350,2013-03-12 18:54:00
3:54 PM,48.9,33.1,54,29.91,10.0,NNW,17.3,21.9,N/A,,Clear,330,2013-03-12 19:54:00
4:54 PM,50.0,32.0,50,29.92,10.0,NNW,15.0,20.7,N/A,,Clear,330,2013-03-12 20:54:00
5:54 PM,50.0,28.9,44,29.93,10.0,North,16.1,-,N/A,,Clear,360,2013-03-12 21:54:00
6:54 PM,48.0,28.9,48,29.95,10.0,North,16.1,25.3,N/A,,Clear,360,2013-03-12 22:54:00
7:54 PM,45.0,28.9,53,29.99,10.0,North,17.3,25.3,N/A,,Clear,350,2013-03-12 23:54:00
8:54 PM,43.0,30.0,60,30.01,10.0,North,8.1,-,N/A,,Clear,350,2013-03-13 00:54:00
9:54 PM,41.0,30.0,65,30.03,10.0,NNW,6.9,-,N/A,,Clear,340,2013-03-13 01:54:00
10:54 PM,41.0,30.0,65,30.02,10.0,NNW,13.8,18.4,N/A,,Clear,330,2013-03-13 02:54:00
11:54 PM,39.9,30.0,68,30.03,10.0,NNW,16.1,-,N/A,,Clear,330,2013-03-13 03:54:00